When you browse on this site, cookies collect data to enhance your experience and personalize the content and advertising you see.
Visit our Privacy Policy to learn more. By continuing to use the site, you agree to this use of cookies and data.
  • En España
  • Lista de países
  • Para 7 días
  • Temperatura del agua
  • Mapa Satelital
  • El tiempo en el mapa
  • Informadores
  • user-avatar
    Iniciar sesión

    Tiempo cada hora Kumasi

    Hoy, 17 Noviembre, Sábado

    Tiempo Temperatura Precipitaciones Viento Presión Humedad
    00:00 +28°C° 0 mm 2 mps 756 mmHg 89%
    01:00 +28°C° 0 mm 2 mps 756 mmHg 90%
    02:00 +27°C° 0 mm 2 mps 756 mmHg 90%
    03:00 +27°C° 0 mm 1 mps 756 mmHg 91%
    04:00 +27°C° 0 mm 1 mps 756 mmHg 92%
    05:00 +27°C° 0 mm 1 mps 756 mmHg 93%
    06:00 +27°C° 0 mm 1 mps 756 mmHg 92%
    07:00 +29°C° 0 mm 1 mps 756 mmHg 84%
    08:00 +30°C° 0 mm 2 mps 757 mmHg 76%
    09:00 +32°C° 0 mm 2 mps 757 mmHg 68%
    10:00 +34°C° 0.1 mm 2 mps 756 mmHg 62%
    11:00 +36°C° 0.1 mm 2 mps 756 mmHg 56%
    12:00 +37°C° 0.1 mm 2 mps 755 mmHg 51%
    13:00 +36°C° 0.3 mm 3 mps 755 mmHg 52%
    14:00 +36°C° 0.3 mm 3 mps 755 mmHg 54%
    15:00 +36°C° 0.3 mm 3 mps 754 mmHg 55%
    16:00 +34°C° 0 mm 3 mps 754 mmHg 60%
    17:00 +33°C° 0 mm 3 mps 755 mmHg 66%
    18:00 +30°C° 0 mm 3 mps 755 mmHg 71%
    19:00 +30°C° 0 mm 3 mps 755 mmHg 73%
    20:00 +29°C° 0 mm 3 mps 756 mmHg 76%
    21:00 +29°C° 0 mm 3 mps 756 mmHg 78%
    22:00 +29°C° 0 mm 2 mps 756 mmHg 79%
    23:00 +28°C° 0 mm 2 mps 756 mmHg 81%

    Mañana, 18 Noviembre, Domingo

    Tiempo Temperatura Precipitaciones Viento Presión Humedad
    00:00 +28°C° 0 mm 2 mps 756 mmHg 82%
    01:00 +28°C° 0 mm 2 mps 755 mmHg 84%
    02:00 +28°C° 0 mm 3 mps 755 mmHg 85%
    03:00 +28°C° 0 mm 3 mps 755 mmHg 86%
    04:00 +27°C° 0.1 mm 2 mps 755 mmHg 88%
    05:00 +27°C° 0.1 mm 2 mps 755 mmHg 89%
    06:00 +27°C° 0.1 mm 2 mps 755 mmHg 90%
    07:00 +29°C° 0 mm 2 mps 756 mmHg 82%
    08:00 +30°C° 0 mm 3 mps 756 mmHg 74%
    09:00 +33°C° 0 mm 3 mps 757 mmHg 66%
    10:00 +35°C° 0 mm 3 mps 756 mmHg 59%
    11:00 +36°C° 0 mm 3 mps 756 mmHg 53%
    12:00 +38°C° 0 mm 3 mps 755 mmHg 47%
    13:00 +37°C° 0 mm 3 mps 755 mmHg 48%
    14:00 +37°C° 0 mm 3 mps 754 mmHg 49%
    15:00 +36°C° 0 mm 4 mps 753 mmHg 51%
    16:00 +35°C° 0 mm 4 mps 753 mmHg 56%
    17:00 +34°C° 0 mm 4 mps 754 mmHg 62%
    18:00 +32°C° 0 mm 4 mps 754 mmHg 68%
    19:00 +30°C° 0 mm 4 mps 754 mmHg 71%
    20:00 +30°C° 0 mm 3 mps 755 mmHg 75%
    21:00 +29°C° 0 mm 3 mps 755 mmHg 78%
    22:00 +29°C° 0 mm 3 mps 755 mmHg 80%
    23:00 +29°C° 0 mm 3 mps 755 mmHg 82%

    Pasado mañana, 19 Noviembre, Lunes

    Tiempo Temperatura Precipitaciones Viento Presión Humedad
    00:00 +28°C° 0 mm 3 mps 755 mmHg 84%
    01:00 +28°C° 0 mm 3 mps 755 mmHg 85%
    02:00 +28°C° 0 mm 3 mps 755 mmHg 86%
    03:00 +28°C° 0 mm 3 mps 754 mmHg 87%
    04:00 +28°C° 0 mm 2 mps 755 mmHg 88%
    05:00 +27°C° 0 mm 2 mps 755 mmHg 89%
    06:00 +27°C° 0 mm 2 mps 755 mmHg 90%
    07:00 +29°C° 0 mm 2 mps 756 mmHg 82%
    08:00 +31°C° 0 mm 3 mps 756 mmHg 74%
    09:00 +33°C° 0 mm 3 mps 757 mmHg 66%
    10:00 +35°C° 0 mm 3 mps 756 mmHg 60%
    11:00 +36°C° 0 mm 3 mps 755 mmHg 54%
    12:00 +38°C° 0 mm 3 mps 755 mmHg 48%
    13:00 +37°C° 0.3 mm 3 mps 754 mmHg 50%
    14:00 +37°C° 0.3 mm 3 mps 753 mmHg 52%
    15:00 +36°C° 0.3 mm 3 mps 753 mmHg 54%
    16:00 +35°C° 0.2 mm 3 mps 753 mmHg 60%
    17:00 +33°C° 0.2 mm 3 mps 753 mmHg 67%
    18:00 +31°C° 0.2 mm 3 mps 753 mmHg 73%
    19:00 +30°C° 0 mm 3 mps 754 mmHg 76%
    20:00 +30°C° 0 mm 3 mps 755 mmHg 79%
    21:00 +29°C° 0 mm 3 mps 755 mmHg 82%
    22:00 +29°C° 0 mm 3 mps 755 mmHg 83%
    23:00 +29°C° 0 mm 3 mps 755 mmHg 84%

    20 Noviembre, Martes

    Tiempo Temperatura Precipitaciones Viento Presión Humedad
    00:00 +28°C° 0 mm 3 mps 755 mmHg 85%
    01:00 +28°C° 0.1 mm 3 mps 755 mmHg 86%
    02:00 +28°C° 0.1 mm 3 mps 754 mmHg 87%
    03:00 +28°C° 0.1 mm 3 mps 754 mmHg 88%
    04:00 +28°C° 0 mm 3 mps 754 mmHg 89%
    05:00 +28°C° 0 mm 3 mps 754 mmHg 90%
    06:00 +27°C° 0 mm 2 mps 755 mmHg 90%
    07:00 +29°C° 0 mm 3 mps 755 mmHg 82%
    08:00 +31°C° 0 mm 3 mps 756 mmHg 74%
    09:00 +33°C° 0 mm 4 mps 757 mmHg 66%
    10:00 +35°C° 0.1 mm 3 mps 756 mmHg 62%
    11:00 +36°C° 0.1 mm 3 mps 756 mmHg 58%
    12:00 +37°C° 0.1 mm 3 mps 755 mmHg 54%
    13:00 +36°C° 0.5 mm 3 mps 755 mmHg 55%
    14:00 +36°C° 0.5 mm 3 mps 754 mmHg 57%
    15:00 +36°C° 0.5 mm 4 mps 753 mmHg 58%
    16:00 +34°C° 0.2 mm 3 mps 754 mmHg 63%
    17:00 +33°C° 0.2 mm 3 mps 754 mmHg 69%
    18:00 +31°C° 0.2 mm 3 mps 754 mmHg 74%
    19:00 +30°C° 0 mm 3 mps 755 mmHg 76%
    20:00 +30°C° 0 mm 3 mps 755 mmHg 78%
    21:00 +29°C° 0 mm 3 mps 756 mmHg 81%
    22:00 +29°C° 0 mm 3 mps 756 mmHg 82%
    23:00 +29°C° 0 mm 3 mps 755 mmHg 83%

    21 Noviembre, Miércoles

    Tiempo Temperatura Precipitaciones Viento Presión Humedad
    00:00 +29°C° 0 mm 3 mps 755 mmHg 84%
    01:00 +28°C° 0 mm 3 mps 755 mmHg 86%
    02:00 +28°C° 0 mm 3 mps 754 mmHg 87%
    03:00 +28°C° 0 mm 3 mps 754 mmHg 88%
    04:00 +28°C° 0 mm 3 mps 754 mmHg 89%
    05:00 +28°C° 0 mm 3 mps 755 mmHg 90%
    06:00 +27°C° 0 mm 3 mps 755 mmHg 90%
    07:00 +29°C° 0 mm 3 mps 756 mmHg 83%
    08:00 +31°C° 0 mm 3 mps 756 mmHg 75%
    09:00 +33°C° 0 mm 3 mps 756 mmHg 68%
    10:00 +34°C° 0.3 mm 3 mps 756 mmHg 65%
    11:00 +34°C° 0.3 mm 3 mps 755 mmHg 63%
    12:00 +35°C° 0.3 mm 4 mps 755 mmHg 61%
    13:00 +35°C° 0.5 mm 4 mps 754 mmHg 61%
    14:00 +35°C° 0.5 mm 4 mps 754 mmHg 60%
    15:00 +35°C° 0.5 mm 4 mps 753 mmHg 60%
    16:00 +34°C° 0.2 mm 4 mps 754 mmHg 65%
    17:00 +33°C° 0.2 mm 4 mps 754 mmHg 70%
    18:00 +30°C° 0.2 mm 3 mps 755 mmHg 75%
    19:00 +30°C° 0.1 mm 3 mps 755 mmHg 77%
    20:00 +29°C° 0.1 mm 3 mps 756 mmHg 79%
    21:00 +29°C° 0.1 mm 3 mps 756 mmHg 81%
    22:00 +29°C° 0 mm 3 mps 756 mmHg 83%
    23:00 +29°C° 0 mm 4 mps 756 mmHg 84%

    22 Noviembre, Jueves

    Tiempo Temperatura Precipitaciones Viento Presión Humedad
    00:00 +28°C° 0 mm 4 mps 755 mmHg 85%
    01:00 +28°C° 0 mm 3 mps 755 mmHg 86%
    02:00 +28°C° 0 mm 3 mps 755 mmHg 87%
    03:00 +28°C° 0 mm 3 mps 754 mmHg 88%
    04:00 +28°C° 0 mm 3 mps 754 mmHg 89%
    05:00 +28°C° 0 mm 3 mps 755 mmHg 90%
    06:00 +27°C° 0 mm 3 mps 755 mmHg 90%
    07:00 +29°C° 0 mm 3 mps 756 mmHg 84%
    08:00 +30°C° 0 mm 3 mps 756 mmHg 78%
    09:00 +32°C° 0 mm 4 mps 756 mmHg 71%
    10:00 +33°C° 0.1 mm 4 mps 756 mmHg 68%
    11:00 +34°C° 0.1 mm 4 mps 755 mmHg 64%
    12:00 +35°C° 0.1 mm 4 mps 755 mmHg 61%
    13:00 +35°C° 0.5 mm 4 mps 754 mmHg 60%
    14:00 +35°C° 0.5 mm 4 mps 754 mmHg 60%
    15:00 +35°C° 0.5 mm 4 mps 753 mmHg 60%
    16:00 +34°C° 0 mm 3 mps 754 mmHg 64%
    17:00 +31°C° 0 mm 3 mps 754 mmHg 69%
    18:00 +30°C° 0 mm 3 mps 754 mmHg 73%
    19:00 +30°C° 0.1 mm 3 mps 755 mmHg 76%
    20:00 +29°C° 0.1 mm 3 mps 755 mmHg 78%
    21:00 +29°C° 0.1 mm 3 mps 756 mmHg 81%
    22:00 +29°C° 0 mm 3 mps 755 mmHg 82%
    23:00 +28°C° 0 mm 3 mps 755 mmHg 84%
    Mostrar más